Terug naar catalogus

STARLINK-31033

ActiefCommunicatieVLEO
NORAD 58723·PAYLOAD·🇺🇸 United States

Gelanceerd Jan 3, 2024 vanaf Vandenberg Space Force Base

Loading…

Volgende Passages (komende 24 uur)

TLE

VersSource: CelesTrak SupGP

Epoch: Sep 14, 2026, 22:08 UTC

1 58723C 24002U   26257.92270833  .00037546  00000+0  11095-2 0  2578
2 58723  53.1589  69.6214 0001107  83.9240  27.0279 15.34367128    19

Volg STARLINK-31033 in realtime met AllMySat

Download on the App Store